Flag for Switzerland Weather past 2 weeks in Lancy, Geneva, Switzerland

Now
36 °F

Passing clouds.


Feels Like: 32 °F
Forecast: 24 / 38 °F
Wind: 5 mph from South

Location: Geneva Cointrin Airport

Current Time: Jan 30, 2015 at 6:26:08 AM

Latest Report: Jan 30, 2015 at 5:50 AM


Visibility: N/A

Pressure: 29.12 "Hg

Humidity: 65%

Dew point: 25 °F

Location of LancyLocation

Historic Weather in Lancy — Graph

°F

Lancy temperature yesterday

Maximum temperature yesterday: 41 °F (at 3:50 AM)
Minimum temperature yesterday: 36 °F (at 12:20 AM)
Average temperature yesterday: 39 °F

Past Weeks' High & Low Weather Summary

 TemperatureHumidityPressure
High52 °F (Jan 15, 2:50 PM)100% (Jan 16, 12:50 PM)30.36 "Hg (Jan 16, 12:50 PM)
Low25 °F (Jan 18, 4:50 AM)48% (Jan 25, 1:20 PM)28.97 "Hg (Jan 29, 10:50 PM)
Average36 °F84%29.96 "Hg
* Reported Jan 15 5:20 AM — Jan 30 5:20 AM, Lancy, Weather by CustomWeather, © 2014

Note: Actual official high and low records may vary slightly from our data, if they occured in-between our weather recording intervals... More about our weather records

Advertising

Lancy weather history for previous 24 hours

 ConditionsComfort  
Time TempWeatherWind HumidityBarometerVisibility
5:20 AM
Jan 30
36 °FPassing clouds.5 mph60%29.09 "HgN/A
4:20 AM37 °FSnow flurries. Partly cloudy.15 mph65%29.09 "Hg2 mi
3:50 AM37 °FPartly cloudy.15 mph65%29.06 "HgN/A
3:20 AM39 °FPartly cloudy.13 mph56%29.03 "HgN/A
2:50 AM39 °FPartly cloudy.12 mph70%29.03 "HgN/A
1:50 AM41 °FLight rain. Partly cloudy.18 mph76%29.00 "Hg6 mi
1:20 AM41 °FPartly cloudy.20 mph81%29.00 "HgN/A
12:50 AM41 °FPartly cloudy.26 mph81%28.97 "HgN/A
12:20 AM39 °FLight rain. Mostly cloudy.23 mph93%28.97 "Hg6 mi
11:50 PM
Jan 29
39 °FRain. Mostly cloudy.23 mph87%28.97 "Hg6 mi
11:20 PM37 °FRain. Mostly cloudy.18 mph93%28.97 "Hg5 mi
10:50 PM37 °FLight rain. Mostly cloudy.15 mph93%28.97 "Hg6 mi
10:20 PM39 °FRain. Mostly cloudy.21 mph87%29.00 "Hg5 mi
9:50 PM39 °FRain. Mostly cloudy.21 mph93%29.00 "Hg5 mi
9:20 PM39 °FLight rain. Partly cloudy.18 mph93%29.03 "Hg6 mi
8:50 PM39 °FRain. Partly cloudy.18 mph93%29.06 "Hg6 mi
8:20 PM39 °FLight rain. Partly cloudy.18 mph93%29.09 "Hg6 mi
7:50 PM39 °FLight rain. Partly cloudy.16 mph93%29.12 "Hg6 mi
7:20 PM39 °FLight rain. Partly cloudy.18 mph93%29.15 "Hg6 mi
6:50 PM39 °FLight rain. Partly cloudy.17 mph93%29.18 "Hg5 mi
6:20 PM39 °FLight rain. Partly cloudy.17 mph93%29.21 "Hg5 mi
5:50 PM39 °FLight rain. Mostly cloudy.21 mph93%29.24 "Hg5 mi
5:20 PM39 °FLight rain. More clouds than sun.20 mph93%29.27 "Hg5 mi
4:50 PM39 °FLight rain. More clouds than sun.18 mph93%29.27 "Hg5 mi
4:20 PM39 °FLight rain. More clouds than sun.17 mph87%29.30 "Hg5 mi
3:50 PM39 °FLight rain. More clouds than sun.18 mph93%29.33 "Hg6 mi
3:20 PM39 °FLight rain. More clouds than sun.16 mph93%29.36 "HgN/A
2:50 PM39 °FLight rain. More clouds than sun.15 mph87%29.39 "HgN/A
2:20 PM39 °FLight rain. More clouds than sun.15 mph93%29.42 "HgN/A
1:50 PM39 °FLight rain. More clouds than sun.17 mph87%29.45 "HgN/A
1:20 PM37 °FLight rain. More clouds than sun.17 mph93%29.47 "HgN/A
12:50 PM37 °FLight rain. More clouds than sun.17 mph93%29.50 "HgN/A
12:20 PM39 °FLight rain. More clouds than sun.14 mph87%29.53 "HgN/A
11:50 AM39 °FLight rain. More clouds than sun.16 mph87%29.53 "HgN/A
11:20 AM39 °FMore clouds than sun.17 mph87%29.56 "HgN/A
10:50 AM39 °FLight rain. Mostly cloudy.17 mph87%29.59 "HgN/A
10:20 AM39 °FLight rain. Mostly cloudy.15 mph87%29.62 "HgN/A
9:50 AM39 °FRain. Mostly cloudy.16 mph87%29.62 "Hg6 mi
9:20 AM39 °FLight rain. Mostly cloudy.16 mph87%29.65 "HgN/A
8:50 AM39 °FLight rain. More clouds than sun.10 mph87%29.65 "HgN/A
8:20 AM39 °FLight rain. More clouds than sun.13 mph87%29.65 "HgN/A
7:50 AM39 °FLight rain. Mostly cloudy.15 mph87%29.65 "HgN/A
7:20 AM39 °FLight rain. Mostly cloudy.14 mph87%29.65 "HgN/A
6:50 AM39 °FLight rain. Mostly cloudy.13 mph93%29.68 "HgN/A
6:20 AM39 °FLight rain. Mostly cloudy.13 mph93%29.68 "HgN/A
Weather by CustomWeather, © 2014

See weather overviewHow to use our weather pages